User: anonymous   Login
Location: Unspecified
(0.0000°N, 0.0000°E)
Time: 21:46:41
(UTC+00:00)
Language:

ISS - Orbit

View from above orbital plane
View from above orbital plane
View from above satellite
View from above satellite

Ground track
Ground track

The orbit data is extracted from the following two-line orbital elements,

1 25544U 98067A   18317.59709766  .00016717  00000-0  10270-3 0  9051
2 25544  51.6407 354.1719 0005158  43.3079 316.8478 15.53945960 21748
Epoch (UTC): 13 November 2018 14:19:49
Eccentricity: 0.0005158
inclination: 51.6407°
perigee height: 402 km
apogee height: 409 km
right ascension of ascending node: 354.1719°
argument of perigee: 43.3079°
revolutions per day: 15.53945960
mean anomaly at epoch: 316.8478°
orbit number at epoch: 2174

The dashed part of the orbit path shows where the satellite is in the earth's shadow,  

DLR